Regional Weather Roundup
Issued by NWS Charleston, WV

Home | Current Version | Previous Version | Graphics & Text | Print | Product List | Glossary On
Versions: 1 2 3 4 5 6 7 8 9 10 11 12 13 14 15 16 17 18 19 20 21 22 23 24 25 26 27 28 29 30 31 32 33 34 35 36 37 38 39 40 41 42 43 44 45 46 47 48 49 50
174
ASUS41 KRLX 050510
RWRRLX
West Virginia Regional Weather Roundup
National Weather Service Charleston WV
1200 AM EST MON DEC 05 2016

Note: "fair" indicates few or no clouds below 12,000 feet with no
significant weather and/or obstructions to visibility.

WVZ003-050600-
Northern Panhandle of West Virginia

CITY           SKY/WX    TMP DP  RH WIND       PRES   REMARKS
WHEELING       LGT RAIN  38  36  92 SW7       29.84R FOG
$$

WVZ009-050600-
Northwest West Virginia

CITY           SKY/WX    TMP DP  RH WIND       PRES   REMARKS
PARKERSBURG    CLOUDY    44  41  89 SW9       29.91R
$$

WVZ006-050600-
Western West Virginia

CITY           SKY/WX    TMP DP  RH WIND       PRES   REMARKS
HUNTINGTON     CLOUDY    47  43  86 SW7       29.94R
$$

WVZ015-050600-
West Central West Virginia

CITY           SKY/WX    TMP DP  RH WIND       PRES   REMARKS
CHARLESTON     LGT RAIN  48  45  89 SW10      29.94S
$$

WVZ022-031-050600-
North Central West Virginia

CITY           SKY/WX    TMP DP  RH WIND       PRES   REMARKS
CLARKSBURG     LGT RAIN  45  43  93 SW12      29.87S
MORGANTOWN     LGT RAIN  46  41  82 S7        29.86S
$$

WVZ025-035-042-045-050600-
Southern West Virginia

CITY           SKY/WX    TMP DP  RH WIND       PRES   REMARKS
BECKLEY        LGT RAIN  39  38  96 S6        29.95R FOG
LOGAN          NOT AVBL
BLUEFIELD      LGT RAIN  41  39  93 SW6       29.97R
LEWISBURG      RAIN      34  33  98 CALM      29.98S
$$

WVZ047-050600-
Northern Mountains of West Virginia

CITY           SKY/WX    TMP DP  RH WIND       PRES   REMARKS
ELKINS         LGT RAIN  40  36  86 S8        29.91S FOG
$$

WVZ052-050600-
Eastern Panhandle of West Virginia

CITY           SKY/WX    TMP DP  RH WIND       PRES   REMARKS
MARTINSBURG    CLOUDY    37  35  92 S6        29.99F
PETERSBURG     LGT RAIN  41  36  82 SE6       29.94F
$$




USA.gov is the U.S. government's official web portal to all federal, state and local government web resources and services.